FENGYUN 2D

Last updated on Tue Feb 05 2019 03:02:48 GMT+0000 (Coordinated Universal Time)

1 29640U 06053A 19035.16425094 -.00000029 00000-0 10000-3 0 9990 2 29640 5.9836 54.7591 0011880 318.2598 230.5945 0.98192293 44581

Satellite not in orbit

FENGYUN 2D